Wind_Speed
46 43 39 35 32 31 31 21 3 22 23 5 1 4 6 4 3 4 4 4 4 5 3 3 3 6 2 2 2 5 1 4 3 2 0 1 1 3 4 3 4 1 0 5
44 43 39 37 36 37 35 16 7 22 23 4 1 2 3 3 1 2 3 3 3 2 4 4 2 3 1 4 3 6 5 1 3 2 2 1 3 3 4 5 2 5 4 4
45 43 39 37 39 39 32 15 3 6 9 5 8 5 3 2 2 1 5 5 4 4 3 4 5 3 1 2 3 5 4 3 4 6 3 1 4 4 5 4 3 4 6 4
44 41 38 39 42 42 27 8 3 8 4 2 5 4 5 5 3 2 3 4 3 5 4 2 3 2 2 3 5 3 2 4 2 1 1 2 2 4 8 8 4 6 4 9
42 39 38 41 44 44 25 9 6 5 4 17 6 1 6 7 3 1 1 6 3 2 6 6 8 7 4 4 2 2 2 3 2 3 1 3 3 5 7 8 3 10 4 13
40 38 38 42 45 45 17 9 11 13 1 3 5 5 6 7 7 4 5 7 5 4 1 4 8 7 11 7 5 3 2 5 3 3 3 3 5 9 12 6 6 8 10 10
37 36 38 42 45 44 20 13 14 7 2 3 5 8 4 6 2 7 3 6 4 7 27 28 23 26 22 17 12 4 5 4 2 1 2 1 4 2 3 12 10 13 5 4
34 34 37 42 44 43 18 15 9 7 3 3 3 6 6 13 10 5 4 3 8 27 6 4 4 4 5 5 7 6 3 4 3 3 2 6 5 3 6 6 6 12 14 6
31 32 36 42 44 41 20 14 11 5 13 6 8 6 8 5 4 3 4 8 26 4 4 3 4 3 4 1 1 3 5 5 3 3 3 5 5 2 3 4 4 2 11 8
28 31 37 42 42 38 21 12 11 5 7 9 13 5 8 9 6 4 6 10 4 1 2 3 3 3 1 3 5 2 2 3 3 2 3 7 6 3 3 2 5 2 13 15
27 31 36 40 42 37 26 13 12 7 7 11 7 9 12 10 10 5 11 6 1 3 3 3 3 3 4 2 3 5 5 6 3 3 1 6 6 4 4 3 4 6 14 17
26 30 34 37 40 39 24 11 11 10 7 9 13 11 11 8 11 14 21 5 6 8 4 1 3 2 1 2 3 1 3 4 4 8 4 4 11 8 9 9 6 6 13 15
24 28 33 35 38 34 20 14 14 14 19 12 9 11 10 10 11 13 9 6 9 8 6 8 2 3 3 4 4 1 4 5 2 1 2 10 18 18 23 26 26 20 16 14
23 26 29 33 34 29 27 14 13 8 10 7 4 8 7 7 9 9 8 10 14 15 8 5 3 3 6 3 2 3 3 7 4 4 11 14 11 12 12 15 18 19 19 18
24 26 27 30 30 26 26 12 14 13 3 7 8 12 9 8 7 7 8 13 16 10 5 3 2 6 5 2 1 3 9 5 4 5 8 5 11 13 15 11 12 14 13 11
23 25 26 26 25 26 32 12 9 11 12 8 3 5 6 10 10 12 14 10 7 5 4 4 4 4 3 3 3 5 9 11 11 7 16 20 19 17 15 15 13 9 7 9
23 26 27 26 26 23 12 9 13 12 10 5 4 2 3 6 7 5 6 6 4 3 5 4 4 3 4 3 3 13 18 16 13 10 11 8 7 9 12 7 3 6 12 17
19 20 20 17 16 18 18 17 15 13 7 5 4 1 3 3 2 3 3 3 4 5 4 4 4 4 2 1 10 18 18 15 3 18 10 7 8 4 3 7 12 20 23 20
20 19 19 18 14 6 12 14 11 9 6 6 3 4 3 2 4 3 3 4 3 2 2 2 3 1 2 4 11 14 16 12 13 8 6 6 7 10 10 12 21 24 20 17
18 14 5 5 9 21 14 4 3 4 6 5 4 3 2 3 2 4 2 4 2 2 1 1 2 3 7 8 9 11 14 13 6 3 11 12 17 18 18 19 18 17 15 12
6 4 6 18 12 5 5 5 6 6 4 5 4 3 3 2 3 2 3 2 1 3 1 2 1 2 2 9 14 14 14 14 16 15 16 17 20 20 19 17 15 11 6 5
9 14 16 7 5 6 6 2 2 4 2 2 3 3 4 4 3 4 3 3 2 2 2 2 3 2 9 11 16 17 20 23 25 23 22 20 17 14 11 8 5 4 5 6
12 4 4 3 6 6 4 5 1 1 3 3 3 2 3 3 3 5 2 3 1 6 2 2 2 9 9 12 12 14 15 15 14 13 11 9 7 5 5 6 6 7 8 9
4 4 5 3 2 2 2 2 2 3 4 8 9 5 2 3 3 1 3 1 2 3 3 3 3 12 14 14 12 9 9 8 8 7 6 6 6 6 7 7 8 8 9 10
6 5 3 3 4 5 6 7 6 6 6 6 6 5 3 2 3 1 3 2 2 1 2 2 6 16 15 12 11 10 8 7 7 7 7 6 6 6 6 6 7 7 8 9
5 6 4 6 6 3 6 10 8 6 9 7 5 3 2 2 2 2 1 3 3 3 4 11 14 15 14 10 11 5 5 6 6 5 6 6 7 8 9 8 9 12 15 18
4 5 10 9 11 6 5 5 4 6 3 2 2 3 1 2 2 1 1 3 3 11 16 14 12 9 8 8 7 3 1 1 3 5 6 7 8 9 12 16 19 22 24 25
Wind_Direction
205 200 195 192 190 183 180 178 169 174 172 124 129 158 194 166 252 177 202 114 120 142 137 122 145 177 213 164 160 142 136 125 148 189 218 309 165 150 143 132 186 82 109 272
196 196 190 188 186 183 169 178 149 169 177 136 205 247 195 156 255 207 131 113 106 71 127 112 145 144 105 163 144 159 184 96 99 15 355 354 217 155 113 105 101 188 161 257
195 191 188 185 181 179 171 172 115 134 194 167 140 148 159 155 196 105 88 117 92 105 89 27 154 138 74 112 110 118 116 120 165 192 188 150 186 183 171 141 148 170 229 260
193 189 185 181 179 177 181 179 165 152 183 211 148 132 148 149 182 103 77 71 129 148 118 86 121 123 118 64 141 72 103 156 136 108 21 263 243 192 186 204 174 191 229 218
189 186 183 180 178 179 192 149 140 128 116 154 115 105 196 148 168 57 50 116 123 114 151 178 191 147 188 184 87 88 21 160 133 195 349 3 279 247 211 227 217 253 236 265
186 184 181 180 179 180 191 169 148 171 351 98 116 195 172 176 137 48 61 137 108 86 79 99 103 108 111 121 135 122 99 137 121 245 360 352 313 223 207 196 207 212 225 244
183 182 181 179 182 180 180 172 161 132 180 158 181 168 138 150 171 135 74 108 103 130 115 100 89 80 74 68 49 77 127 100 60 162 10 262 252 187 192 224 243 215 248 189
180 181 181 180 182 180 183 177 171 160 127 173 122 143 116 106 86 77 96 66 131 141 119 73 61 359 26 28 40 27 50 123 98 149 209 303 277 193 187 181 280 214 218 178
179 180 181 182 182 181 183 175 188 165 127 229 147 135 165 133 114 63 72 112 147 148 77 79 131 184 200 206 74 54 57 59 110 134 184 232 247 307 200 167 283 267 196 158
178 179 180 182 180 179 179 178 194 171 113 145 161 157 170 140 114 102 126 147 202 81 80 89 145 198 199 178 175 191 47 21 165 143 235 285 255 260 149 109 255 241 187 184
175 177 178 180 179 179 183 181 190 183 127 142 162 151 156 150 154 137 152 102 236 58 78 132 181 157 202 152 161 181 173 153 187 110 202 274 193 128 177 233 280 224 195 195
169 172 175 177 180 183 182 192 196 174 132 126 122 131 152 165 162 143 164 169 156 159 94 135 118 139 133 121 223 345 229 199 181 197 220 248 205 238 239 264 273 273 242 237
159 167 172 175 177 179 176 194 164 134 114 102 109 100 112 147 153 156 142 180 165 165 136 142 127 131 142 160 231 188 234 177 216 114 247 242 258 256 269 270 275 280 276 274
147 155 162 165 166 173 180 169 185 152 125 110 89 108 105 119 158 164 169 186 165 153 138 109 133 137 194 184 159 189 200 149 179 260 280 282 288 293 318 292 282 284 276 273
138 142 149 159 164 162 165 201 197 176 161 133 123 103 76 95 133 152 140 157 157 146 114 101 159 128 127 71 69 259 182 185 177 232 293 254 292 320 315 305 297 288 273 256
121 130 138 146 156 162 162 148 129 140 124 109 112 119 102 104 116 136 140 143 140 130 124 116 114 129 132 132 192 11 351 314 297 286 303 299 301 305 304 300 294 279 231 197
134 136 139 146 155 161 171 145 144 131 118 102 87 35 116 136 131 120 109 121 107 103 104 73 113 108 146 132 193 346 353 349 339 344 328 315 359 327 316 298 234 173 148 148
134 134 137 140 143 122 105 115 124 130 103 86 109 300 101 131 95 81 71 99 107 56 97 101 104 112 110 184 348 340 341 337 291 357 355 319 314 323 91 133 148 137 120 115
130 132 130 121 117 89 106 110 113 96 100 106 84 133 194 64 83 72 71 66 69 62 96 80 130 107 72 341 334 352 356 344 318 346 17 68 85 88 100 128 131 121 105 94
134 132 105 87 104 117 112 71 73 55 39 58 81 97 102 90 98 58 74 38 65 158 25 65 70 79 92 35 33 30 25 23 48 77 68 82 94 101 101 97 89 79 71 63
131 69 61 118 114 86 60 64 48 2 41 36 75 90 122 99 118 120 47 107 54 171 187 169 109 102 54 70 66 67 66 64 72 86 96 99 98 92 83 71 60 51 31 358
86 102 109 81 58 58 71 23 17 45 148 75 91 89 90 93 98 104 109 108 122 169 142 153 156 132 129 101 98 89 82 84 86 82 81 78 78 74 68 56 28 343 314 306
133 87 80 27 17 59 113 176 202 153 181 130 130 75 88 104 91 88 107 139 144 132 175 156 83 154 130 118 111 103 92 87 87 85 81 76 62 46 23 4 349 340 333 323
80 55 60 69 81 71 54 90 95 116 123 124 115 87 82 68 69 78 113 76 127 183 198 171 136 166 147 141 128 117 102 80 72 62 53 45 35 19 2 350 343 336 332 333
66 41 67 64 118 89 93 103 103 108 125 113 100 72 79 40 96 40 114 104 164 231 163 129 150 160 155 143 132 117 92 67 67 61 49 38 30 26 20 7 357 349 336 328
59 57 86 112 88 77 83 97 91 110 121 102 80 93 84 71 103 85 181 142 204 159 136 135 138 150 163 174 148 131 68 72 58 38 19 11 9 11 12 352 336 331 324 319
55 49 80 91 96 90 93 95 88 109 83 80 97 83 145 96 77 121 155 190 172 147 146 140 136 141 149 143 144 143 123 68 28 25 22 20 6 346 331 332 332 326 322 319
Height
1397 1408 1417 1427 1435 1441 1450 1455 1459 1459 1465 1470 1474 1478 1474 1472 1473 1473 1475 1476 1481 1487 1491 1496 1499 1501 1500 1501 1502 1505 1509 1516 1524 1519 1517 1517 1517 1520 1524 1533 1540 1551 1548 1525
1390 1403 1412 1420 1428 1437 1445 1450 1452 1458 1462 1471 1476 1472 1470 1470 1471 1472 1472 1476 1477 1484 1490 1498 1499 1500 1501 1500 1502 1505 1507 1518 1527 1522 1520 1517 1517 1520 1526 1532 1538 1540 1540 1521
1387 1398 1407 1416 1425 1434 1444 1447 1452 1456 1461 1460 1463 1468 1469 1470 1470 1470 1471 1476 1478 1484 1491 1494 1499 1501 1501 1500 1501 1503 1504 1515 1514 1517 1515 1517 1519 1519 1523 1522 1532 1532 1527 1516
1384 1394 1404 1412 1420 1430 1439 1439 1444 1447 1458 1460 1459 1461 1465 1470 1471 1469 1470 1475 1477 1481 1492 1495 1499 1499 1501 1502 1503 1504 1506 1511 1516 1520 1521 1519 1516 1516 1520 1519 1519 1519 1513 1517
1381 1391 1401 1408 1417 1428 1435 1435 1439 1445 1451 1453 1459 1462 1465 1467 1470 1470 1471 1475 1479 1479 1485 1485 1494 1493 1498 1498 1504 1505 1509 1516 1518 1521 1523 1523 1519 1515 1516 1518 1518 1516 1515 1509
1379 1388 1397 1405 1414 1425 1432 1433 1435 1440 1454 1455 1459 1462 1463 1464 1466 1472 1472 1473 1478 1482 1484 1484 1485 1489 1491 1494 1499 1507 1511 1516 1520 1523 1529 1525 1523 1507 1506 1508 1506 1502 1508 1493
1377 1386 1395 1403 1412 1422 1430 1431 1435 1438 1456 1455 1456 1457 1458 1462 1465 1469 1474 1475 1477 1485 1485 1487 1491 1493 1497 1499 1504 1505 1513 1519 1529 1525 1534 1525 1498 1499 1499 1500 1496 1497 1496 1496
1377 1385 1393 1402 1411 1421 1428 1430 1434 1436 1453 1451 1454 1456 1457 1462 1466 1471 1475 1477 1479 1482 1484 1493 1500 1506 1505 1509 1511 1509 1508 1517 1532 1524 1526 1513 1493 1497 1499 1499 1490 1487 1489 1494
1376 1384 1392 1401 1410 1420 1427 1430 1433 1435 1439 1449 1449 1454 1457 1462 1469 1475 1478 1479 1483 1484 1487 1497 1507 1508 1503 1508 1510 1512 1512 1513 1515 1537 1522 1517 1496 1494 1494 1495 1496 1484 1485 1490
1377 1384 1392 1400 1409 1420 1426 1429 1432 1435 1437 1443 1447 1450 1454 1457 1463 1473 1478 1482 1484 1484 1492 1504 1505 1503 1507 1506 1512 1520 1518 1524 1521 1540 1520 1510 1494 1494 1495 1501 1495 1484 1484 1487
1377 1384 1391 1399 1409 1418 1424 1428 1432 1434 1436 1443 1446 1447 1450 1454 1457 1466 1475 1482 1483 1486 1494 1498 1503 1505 1505 1506 1506 1510 1508 1516 1522 1537 1527 1510 1491 1495 1497 1489 1484 1484 1483 1483
1378 1384 1391 1400 1409 1417 1423 1429 1431 1433 1435 1443 1446 1447 1449 1452 1454 1458 1467 1468 1471 1474 1487 1498 1503 1506 1510 1509 1502 1507 1508 1502 1504 1507 1498 1490 1489 1487 1486 1486 1485 1484 1484 1483
1380 1386 1393 1400 1409 1418 1424 1428 1431 1431 1436 1446 1448 1450 1451 1452 1454 1456 1461 1467 1468 1470 1472 1482 1492 1496 1501 1503 1503 1502 1499 1499 1500 1500 1487 1486 1486 1486 1485 1483 1483 1483 1482 1482
1384 1389 1395 1402 1411 1418 1424 1427 1430 1431 1434 1442 1452 1451 1452 1453 1454 1456 1458 1459 1464 1468 1472 1477 1486 1491 1493 1500 1497 1498 1493 1496 1496 1495 1485 1483 1481 1482 1481 1480 1479 1478 1478 1478
1388 1392 1398 1405 1411 1417 1424 1431 1431 1431 1434 1441 1450 1452 1454 1454 1456 1457 1458 1460 1463 1467 1472 1476 1483 1485 1491 1498 1499 1495 1488 1486 1490 1487 1481 1482 1480 1479 1478 1477 1476 1475 1474 1474
1393 1397 1403 1408 1414 1419 1427 1430 1432 1430 1431 1436 1451 1456 1456 1457 1457 1458 1460 1462 1464 1467 1469 1475 1479 1481 1485 1494 1494 1487 1486 1485 1484 1482 1481 1479 1477 1476 1475 1473 1472 1471 1472 1473
1400 1404 1408 1413 1417 1420 1422 1424 1428 1430 1431 1435 1451 1455 1457 1458 1459 1460 1462 1463 1465 1468 1471 1476 1480 1482 1484 1489 1488 1488 1485 1483 1481 1479 1477 1476 1475 1474 1473 1471 1471 1472 1474 1476
1405 1407 1410 1414 1417 1419 1423 1425 1428 1430 1432 1436 1449 1458 1458 1459 1459 1461 1463 1464 1467 1471 1474 1478 1480 1484 1485 1488 1490 1487 1484 1481 1479 1478 1477 1477 1476 1474 1474 1474 1474 1474 1478 1481
1408 1411 1414 1416 1419 1421 1426 1428 1430 1432 1436 1438 1446 1454 1460 1460 1462 1464 1466 1466 1471 1475 1475 1479 1481 1485 1489 1494 1491 1487 1484 1481 1478 1478 1477 1476 1476 1477 1478 1477 1478 1478 1482 1484
1410 1414 1415 1419 1423 1426 1429 1433 1434 1435 1438 1442 1451 1456 1460 1462 1463 1466 1469 1470 1475 1474 1480 1479 1481 1487 1494 1493 1490 1487 1484 1480 1479 1478 1479 1480 1481 1482 1483 1485 1487 1488 1489 1489
1413 1414 1419 1424 1426 1428 1431 1436 1441 1445 1448 1450 1454 1457 1459 1462 1464 1468 1471 1473 1476 1475 1479 1479 1483 1488 1494 1492 1491 1489 1486 1484 1481 1481 1482 1484 1486 1487 1489 1490 1490 1491 1491 1490
1416 1418 1423 1426 1429 1432 1439 1450 1451 1451 1454 1455 1455 1458 1459 1461 1463 1466 1472 1475 1478 1478 1480 1480 1482 1493 1492 1492 1492 1491 1490 1489 1488 1489 1489 1490 1490 1491 1491 1491 1490 1490 1489 1488
1421 1424 1427 1432 1438 1444 1448 1451 1453 1453 1454 1455 1456 1459 1461 1463 1464 1468 1471 1472 1475 1478 1479 1477 1485 1490 1491 1493 1493 1494 1493 1493 1492 1492 1492 1492 1492 1491 1491 1491 1490 1490 1489 1488
1422 1427 1436 1440 1442 1447 1448 1449 1450 1453 1454 1455 1456 1459 1461 1463 1466 1469 1469 1476 1476 1475 1475 1481 1486 1489 1491 1493 1494 1494 1495 1495 1495 1494 1494 1493 1493 1493 1492 1492 1491 1490 1488 1487
1426 1431 1441 1445 1448 1449 1449 1450 1452 1453 1455 1456 1458 1461 1463 1466 1468 1471 1473 1476 1477 1478 1480 1483 1485 1487 1490 1492 1494 1495 1496 1496 1495 1495 1495 1494 1493 1492 1491 1490 1489 1488 1487 1485
1435 1441 1446 1448 1449 1450 1452 1453 1454 1455 1456 1458 1459 1463 1465 1469 1470 1472 1473 1473 1477 1479 1480 1483 1484 1487 1490 1492 1494 1495 1496 1496 1495 1495 1494 1493 1492 1491 1490 1490 1488 1486 1484 1481
1442 1447 1447 1449 1451 1453 1455 1455 1456 1457 1458 1460 1462 1465 1468 1471 1472 1473 1474 1475 1476 1478 1482 1484 1487 1488 1490 1492 1493 1494 1495 1495 1494 1493 1492 1491 1491 1490 1488 1486 1484 1482 1479 1476